Cut Bank, MT

1:38 PM MST on February 27, 2017 (GMT -0700)
Cut Bank Municipal

Weather History for KCTB - December, 2013

Change the Weather History Date:

Monday, December 9, 2013

  Actual Average Record
Temperature  
Mean Temperature 14 °F 23 °F  
Max Temperature 22 °F 33 °F 64 °F (1925)
Min Temperature 5 °F 13 °F -32 °F (1977)
Degree Days  
Heating Degree Days 51 42  
Month to date heating degree days 576 372  
Since 1 July heating degree days 2665 2635  
Cooling Degree Days 0 0  
Month to date cooling degree days 0 0  
Year to date cooling degree days 226 162  
Moisture  
Dew Point 5 °F    
Average Humidity 63    
Maximum Humidity 69    
Minimum Humidity 56    
Precipitation  
Precipitation 0.00 in 0.01 in 0.32 in (1929)
Month to date precipitation 0.02 0.07  
Year to date precipitation 14.43 10.75  
Snow  
Snow 0.00 in - - ()
Snow Depth 2.00 in    
Sea Level Pressure  
Sea Level Pressure 30.05 in    
Wind  
Wind Speed 33 mph (West)    
Max Wind Speed 47 mph    
Max Gust Speed 60 mph    
Visibility 9 miles    
Events      
T = Trace of Precipitation, MM = Missing Value Source: NWS Daily Summary

Daily Weather History Graph

Daily Weather History Graph

Search for Another Location

Airport or City:

Trip Planner

Search our weather history database for the weather conditions in past years. The results will help you decide how hot, cold, wet, or windy it might be!

Date:

Astronomy

Dec. 09, 2013 Rise Set
Actual Time 8:10 AM MST 4:33 PM MST
Civil Twilight 7:33 AM MST 5:10 PM MST
Nautical Twilight 6:53 AM MST 5:50 PM MST
Astronomical Twilight 6:15 AM MST 6:28 PM MST
Moon 12:35 PM MST (12/9) No Moon Set
Length of Visible Light 9h 37m
Length of Day
8h 23m
First Quarter, 52% of the Moon is Illuminated
Dec 9
First Quarter
Dec 17
Full
Dec 25
Last Quarter
Jan 1
New
Jan 7
First Quarter

Hourly Weather History & Observations

Time (MST) Temp. Windchill Dew Point Humidity Pressure Visibility Wind Dir Wind Speed Gust Speed Precip Events Conditions
12:56 AM 7.0 °F -16.3 °F -2.9 °F 64% 30.08 in 10.0 mi WSW 29.9 mph 36.8 mph N/A   Clear
1:56 AM 8.1 °F -15.5 °F -2.0 °F 64% 30.05 in 10.0 mi WSW 32.2 mph 41.4 mph N/A   Clear
2:56 AM 9.0 °F -15.5 °F -0.0 °F 67% 30.04 in 7.0 mi West 36.8 mph 47.2 mph N/A   Overcast
3:56 AM 10.9 °F -13.6 °F 1.9 °F 67% 30.00 in 6.0 mi West 40.3 mph 51.8 mph N/A   Haze
4:56 AM 10.9 °F -13.6 °F 1.9 °F 67% 30.00 in 6.0 mi West 40.3 mph 54.1 mph N/A   Haze
5:56 AM 12.9 °F -11.1 °F 3.0 °F 65% 30.01 in 9.0 mi West 41.4 mph 49.5 mph N/A   Overcast
6:56 AM 12.9 °F -10.8 °F 3.9 °F 67% 29.98 in 8.0 mi West 40.3 mph 51.8 mph N/A   Mostly Cloudy
7:56 AM 12.9 °F -11.1 °F 3.0 °F 65% 30.01 in 6.0 mi West 41.4 mph 51.8 mph N/A   Haze
8:56 AM 12.9 °F -11.1 °F 3.9 °F 67% 30.03 in 7.0 mi West 41.4 mph 52.9 mph N/A   Scattered Clouds
9:56 AM 15.1 °F -8.0 °F 5.0 °F 64% 30.05 in 4.0 mi West 41.4 mph 51.8 mph N/A   Haze
10:56 AM 18.0 °F -0.8 °F 7.0 °F 62% 30.07 in 10.0 mi West 27.6 mph 39.1 mph N/A   Mostly Cloudy
11:56 AM 19.0 °F -0.3 °F 8.1 °F 62% 30.09 in 10.0 mi West 31.1 mph 46.0 mph N/A   Overcast
12:56 PM 18.0 °F -0.5 °F 7.0 °F 62% 30.13 in 10.0 mi West 26.5 mph 38.0 mph N/A   Overcast
1:56 PM 19.0 °F -0.3 °F 7.0 °F 59% 30.12 in 10.0 mi West 31.1 mph 36.8 mph N/A   Overcast
2:56 PM 19.0 °F -0.5 °F 6.1 °F 57% 30.12 in 10.0 mi West 32.2 mph 41.4 mph N/A   Mostly Cloudy
3:56 PM 17.1 °F -1.0 °F 5.0 °F 59% 30.13 in 10.0 mi West 24.2 mph 34.5 mph N/A   Clear
4:56 PM 15.1 °F -4.0 °F 3.9 °F 61% 30.15 in 10.0 mi West 25.3 mph 34.5 mph N/A   Clear
5:56 PM 15.1 °F -5.0 °F 5.0 °F 64% 30.12 in 10.0 mi WSW 28.8 mph 38.0 mph N/A   Clear
6:56 PM 16.0 °F -4.1 °F 6.1 °F 65% 30.09 in 10.0 mi West 29.9 mph 34.5 mph N/A   Clear
7:56 PM 17.1 °F -2.4 °F 6.1 °F 62% 30.06 in 10.0 mi West 28.8 mph 40.3 mph N/A   Clear
8:56 PM 19.0 °F 1.0 °F 7.0 °F 59% 30.04 in 10.0 mi WSW 26.5 mph 33.4 mph N/A   Clear
9:56 PM 19.9 °F 0.4 °F 9.0 °F 62% 30.00 in 10.0 mi WSW 33.4 mph 43.7 mph N/A   Scattered Clouds
10:56 PM 21.0 °F 1.7 °F 10.0 °F 63% 29.96 in 10.0 mi WSW 34.5 mph 41.4 mph N/A   Clear
11:56 PM 21.0 °F 1.2 °F 10.9 °F 65% 29.94 in 10.0 mi West 36.8 mph 47.2 mph N/A   Overcast